Regional Weather Roundup
Issued by NWS Bismarck, ND

Home | Current Version | Previous Version | Text Only | Print | Product List | Glossary Off
Versions: 1 2 3 4 5 6 7 8 9 10 11 12 13 14 15 16 17 18 19 20 21 22 23 24 25 26 27 28 29 30 31 32 33 34 35 36 37 38 39 40 41 42 43 44 45 46 47 48 49 50

000
ASUS43 KBIS 291610
RWRBIS

NWR BROADCAST TEXT
NATIONAL WEATHER SERVICE BISMARCK ND
1100 AM CDT THU JUN 29 2017

NOTE: "FAIR" INDICATES FEW OR NO CLOUDS BELOW 12,000 FEET WITH NO
SIGNIFICANT WEATHER AND/OR OBSTRUCTIONS TO VISIBILITY.


CITY           SKY/WX    TMP DP  RH WIND       PRES   REMARKS
WILLISTON      CLOUDY    76  50  40 NE8       29.85R
MINOT          CLOUDY    73  53  49 CALM      29.83R
MINOT AFB      CLOUDY    69  55  62 N8        29.83R
BISMARCK       CLOUDY    66  57  72 E7        29.86R
DICKINSON      CLOUDY    70  47  43 SW15      29.84R
GARRISON         N/A     69  54  58 SE6       29.83R
HETTINGER ARPT CLOUDY    62  53  72 S13       29.88R
JAMESTOWN      PTSUNNY   68  60  75 CALM      29.82S
HAZEN          FAIR      72  57  60 SE5       29.85R
LINTON         FAIR     N/A N/A N/A SW3       29.88R
MANDAN         FAIR      64  55  72 E7        29.87R
STANLEY        PTSUNNY   61  59  94 NE10G16   29.88S
TIOGA          FAIR      72  50  46 E9        29.86R
WATFORD CITY   FAIR      72  52  49 CALM      29.83R
$$

CITY           SKY/WX    TMP DP  RH WIND       PRES   REMARKS
GRAND FORKS    CLOUDY    68  63  84 N7        29.79S
GRAND FORKS AF CLOUDY    67  64  91 N5        29.80S
DEVILS LAKE    CLOUDY    69  61  75 SE5       29.82S
FARGO          CLOUDY    67  60  78 N5        29.81R
CAVALIER       PTSUNNY   70 -38   1 CALM      29.80S
GRAFTON        FAIR      68  64  88 CALM      29.82S
GWINNER        CLOUDY    66  61  82 CALM      29.83R
LANGDON        FAIR      72  64  78 VRB3      29.83R
ROLLA            N/A     70  52  52 N12       29.84R
$$

CITY           SKY/WX    TMP DP  RH WIND       PRES   REMARKS
ABERDEEN       CLOUDY    64  56  75 CALM      29.82S
MOBRIDGE       CLOUDY    66  52  60 SW3       29.84R
BUFFALO          N/A     61  54  77 S8        29.85R
RAPID CITY     LGT RAIN  61  51  70 NW22G29   29.92R
GLASGOW        SUNNY     70  46  42 N16       29.93R
SIDNEY         PTSUNNY   75  51  43 NW13      29.85R
WOLF POINT     SUNNY     73  48  41 NW8       29.88S
GLENDIVE       CLOUDY    71  50  47 NW13      29.87R
MILES CITY     PTSUNNY   68  47  46 NW17G26   29.93R
BAKER          CLOUDY    66  49  54 W15       29.89R
$$

CITY           SKY/WX    TMP DP  RH WIND       PRES   REMARKS
BILLINGS       LGT RAIN  57  48  72 NW8       30.06R
GREAT FALLS    CLOUDY    57  46  66 NW7       30.14R
REGINA         PTSUNNY   63  54  72 N10       29.89S
ESTEVAN        PTSUNNY   70  54  56 S8        29.84S
$$





USA.gov is the U.S. government's official web portal to all federal, state and local government web resources and services.